S80/T

Satellite information

Favourite Embed

Satellite Type and Status

PAYLOADIN ORBIT

Key statistics

Satellite S80/T at a glance.

Uptime

12179

Days in orbit

Revolutions

≈ 12.9

Per day

Orbit

LEO

Low Earth Orbit

Inclination

66.1

Latest

Satellite identification and parameters

Extended collection of information and parameters for S80/T.

Object identification

Identified? True

Debris? False

Object name: S80/T

International designator: 1992-052C

Object number (NORAD): 22078

Object ID (CCSDS): 22078

Country: FRANCE (FR)

Current information (Y/N): Y

RCS size: MEDIUM

Orbital parameters

Period: 111.901 minutes

Inclination: 66.086 deg

SMA: 7692.198 km

Apoapsis: 1322.046 km

Periapsis: 1306.08 km

RAAN: 300.2091 deg

Eccentricy: 0.00103775

Argument of periapsis: 329.5668 deg

Mean anomaly: 30.4747 deg

Mean motion: 12.86847484 rev/day

Mean motion (dot): -0.00000031 rev/day2

B* drag term: 0.00012362903 1/REarth

Two-line elements (TLE)

Creation date: Dec. 12, 2025, 10:14 a.m.

Reference frame: TEME

Reference center: EARTH

Epoch: Dec. 12, 2025, 6:23 a.m. UTC

TLE line 0: 0 S80/T

TLE line 1: 1 22078U 92052C 25346.26637372 -.00000031 00000-0 12363-3 0 9996

TLE line 2: 2 22078 66.0860 300.2091 0010377 329.5668 30.4747 12.86847484566182

Live tracking on map

Real-time ground track for satellite S80/T.

In-orbit conjunctions

There are no conjunctions computed for S80/T, at the moment. Check back to stay up to date, as we update our databases every day.

Go to all conjunctions

Associated space launch

The TOPEX/POSEIDON satellite was launched on 10 August 1992 with the objective of "observing and understanding the ocean circulation". A joint project between NASA, the U.S. space agency, and CNES, the French space agency, it carries two radar altimeters and precise orbit determination systems, including the DORIS system. KITSAT-1 (Korean Institute of Technology Satellite) was a collaborative research mission, encompassing the installation of a groundstation in South Korea, participation of Korean engineers in the UoSAT-5 mission, technology transfer and training of students on the MSc courses at Surrey, and the involvement in a engineering and flight microsatellites. The S80/T satellite was built for CNES by Matra Marconi Space using the Surrey Satellite Technology Microbus (Uosat) bus.

S80/T was lifted into orbit during the mission ‘Ariane 42P | Topex-Poseidon, Kitsat 1 & S80/T’, on board a Ariane 42P space rocket.

The launch took place on Aug. 10, 1992, 11:08 p.m. from Ariane Launch Area 2.

For more information about the launch, click the button.

Launch to space Ariane 42P | Topex-Poseidon, Kitsat 1 & S80/T
Ariane 42P | Topex-Poseidon, Kitsat 1 & S80/T

Agency: N/A

Status: Launch Successful

Launch date: Aug. 10, 1992, 11:08 p.m. UTC

Rocket: Ariane 42P

Launch pad: Ariane Launch Area 2

Location: Guiana Space Centre, French Guiana

...

Latest news about this satellite

There are no fresh news available about this satellite. Check back as we update our databases every day.


Newsletter sign-up

Weekly statistics, charts and insights to help you stay on top of the space industry.